Weather History for KBTM - April, 2013

Change the Weather History Date:

Wednesday, April 17, 2013

  Actual Average Record
Temperature  
Mean Temperature 25 °F 39 °F  
Max Temperature 37 °F 52 °F 75 °F (1936)
Min Temperature 12 °F 26 °F 11 °F (1896)
Degree Days  
Heating Degree Days 40 26  
Month to date heating degree days 512 469  
Since 1 July heating degree days 7927 8080  
Cooling Degree Days 0 0  
Month to date cooling degree days 0 0  
Year to date cooling degree days 0 0  
Moisture  
Dew Point 7 °F    
Average Humidity 55    
Maximum Humidity 88    
Minimum Humidity 22    
Precipitation  
Precipitation T in 0.04 in 0.40 in (1905)
Month to date precipitation 0.17 0.62  
Year to date precipitation 0.83 2.28  
Sea Level Pressure  
Sea Level Pressure 30.31 in    
Wind  
Wind Speed 4 mph (NNE)    
Max Wind Speed 16 mph    
Max Gust Speed 23 mph    
Visibility 10 miles    
Events Snow    
T = Trace of Precipitation, MM = Missing Value Source: NWS Daily Summary

Daily Weather History Graph

Daily Weather History Graph

Search for Another Location

Airport or City:

Trip Planner

Search our weather history database for the weather conditions in past years. The results will help you decide how hot, cold, wet, or windy it might be!

Date:

Astronomy

Apr. 17, 2013 Rise Set
Actual Time 6:39 AM MDT 8:20 PM MDT
Civil Twilight 6:08 AM MDT 8:51 PM MDT
Nautical Twilight 5:29 AM MDT 9:30 PM MDT
Astronomical Twilight 4:48 AM MDT 10:11 PM MDT
Moon 11:51 AM MDT (4/17) 2:06 AM MDT (4/17)
Length of Visible Light 14h 43m
Length of Day
13h 40m
Waxing Crescent, 43% of the Moon is Illuminated
Apr 17
Waxing Crescent
Apr 18
First Quarter
Apr 25
Full
May 2
Last Quarter
May 9
New

Hourly Weather History & Observations

Time (MDT) Temp. Windchill Dew Point Humidity Pressure Visibility Wind Dir Wind Speed Gust Speed Precip Events Conditions
12:53 AM 16.0 °F 7.4 °F 7.0 °F 68% 30.35 in 10.0 mi NNW 5.8 mph - N/A   Mostly Cloudy
1:53 AM 16.0 °F - 8.1 °F 71% 30.35 in 10.0 mi Calm Calm - N/A   Mostly Cloudy
2:53 AM 14.0 °F - 8.1 °F 77% 30.36 in 10.0 mi Calm Calm - N/A   Partly Cloudy
3:53 AM 14.0 °F 8.2 °F 10.0 °F 84% 30.35 in 10.0 mi SE 3.5 mph - N/A   Overcast
4:53 AM 15.1 °F - 9.0 °F 77% 30.36 in 10.0 mi Calm Calm - N/A   Overcast
5:53 AM 14.0 °F 6.5 °F 9.0 °F 80% 30.35 in 10.0 mi SSE 4.6 mph - N/A   Mostly Cloudy
6:53 AM 12.9 °F 6.9 °F 9.0 °F 84% 30.38 in 10.0 mi NNE 3.5 mph - N/A   Scattered Clouds
7:34 AM 12.2 °F - 8.6 °F 85% 30.20 in 10.0 mi Calm Calm - N/A   Mostly Cloudy
7:53 AM 14.0 °F - 8.6 °F 79% 30.21 in 10.0 mi Calm Calm - N/A   Mostly Cloudy
8:07 AM 15.8 °F - 8.6 °F 73% 30.21 in 10.0 mi Calm Calm - N/A   Scattered Clouds
8:34 AM 17.6 °F - 10.4 °F 73% 30.22 in 10.0 mi Calm Calm - N/A   Mostly Cloudy
8:53 AM 17.1 °F - 9.0 °F 71% 30.40 in 10.0 mi Calm Calm - N/A   Overcast
9:20 AM 19.4 °F - 6.8 °F 58% 30.21 in 10.0 mi Calm Calm - N/A   Overcast
9:53 AM 19.9 °F - 8.1 °F 60% 30.38 in 10.0 mi Calm Calm - N/A   Overcast
10:13 AM 19.4 °F 14.3 °F 8.6 °F 63% 30.21 in 10.0 mi Variable 3.5 mph - N/A   Overcast
10:43 AM 19.4 °F 14.3 °F 8.6 °F 63% 30.21 in 10.0 mi SE 3.5 mph - 0.00 in   Overcast
10:53 AM 21.0 °F 14.6 °F 9.0 °F 60% 30.38 in 9.0 mi WSW 4.6 mph - 0.00 in Snow Light Snow
11:53 AM 25.0 °F - 8.1 °F 49% 30.37 in 10.0 mi Calm Calm - 0.00 in   Overcast
12:53 PM 28.0 °F 20.8 °F 7.0 °F 41% 30.35 in 10.0 mi North 6.9 mph - N/A   Overcast
1:53 PM 28.9 °F 22.8 °F 5.0 °F 36% 30.34 in 10.0 mi Variable 5.8 mph - N/A   Overcast
2:53 PM 30.9 °F 23.5 °F 7.0 °F 37% 30.34 in 10.0 mi ENE 8.1 mph - N/A   Overcast
3:53 PM 33.1 °F 26.1 °F 5.0 °F 31% 30.32 in 10.0 mi NE 8.1 mph 16.1 mph N/A   Overcast
4:53 PM 34.0 °F 27.2 °F 1.9 °F 26% 30.31 in 10.0 mi NW 8.1 mph - N/A   Overcast
5:53 PM 36.0 °F 28.0 °F 1.0 °F 23% 30.30 in 10.0 mi North 11.5 mph - N/A   Mostly Cloudy
6:53 PM 35.1 °F 26.9 °F -0.0 °F 23% 30.31 in 10.0 mi NNW 11.5 mph - N/A   Clear
7:53 PM 33.1 °F 26.1 °F 1.0 °F 26% 30.32 in 10.0 mi North 8.1 mph - N/A   Clear
8:53 PM 30.9 °F 23.5 °F 3.9 °F 32% 30.33 in 10.0 mi North 8.1 mph - N/A   Clear
9:53 PM 28.9 °F 25.2 °F 3.0 °F 33% 30.34 in 10.0 mi North 3.5 mph - N/A   Clear
10:53 PM 27.0 °F 23.0 °F 3.0 °F 36% 30.34 in 10.0 mi NW 3.5 mph - N/A   Clear
11:53 PM 21.0 °F 16.2 °F 10.0 °F 63% 30.35 in 10.0 mi East 3.5 mph - N/A   Clear